Location: L�beck
(53.8752°N, 10.6787°E)
Time: 11:35:14
(UTC+02:00)

ISS - Visible Passes

Search period start: 13 May 2021 00:00
Search period end: 23 May 2021 00:00
Orbit: 417 x 422 km, 51.6° (Epoch: 13 May)

Date Brightness Start Highest point End Pass type
(mag) Time Alt. Az. Time Alt. Az. Time Alt. Az.
13 May -1.4 00:32:06 13° E 00:32:06 13° E 00:32:33 10° E visible
13 May -3.8 02:05:02 39° WSW 02:06:00 59° S 02:09:20 10° E visible
13 May -3.4 03:39:22 10° W 03:42:36 42° SSW 03:45:49 10° SE visible
14 May -3.7 01:18:38 55° S 01:18:38 55° S 01:21:56 10° E visible
14 May -3.6 02:51:57 10° W 02:55:14 50° SSW 02:58:31 10° ESE visible
14 May -2.4 04:28:59 10° W 04:31:35 20° SSW 04:34:10 10° SSE visible
14 May -2.4 22:52:24 10° SSW 22:54:54 19° SSE 22:55:35 18° SE visible
15 May -3.6 00:27:57 10° WSW 00:31:14 49° SSE 00:34:30 10° E visible
15 May -3.8 02:04:31 10° W 02:07:51 56° S 02:11:10 10° ESE visible
15 May -2.8 03:41:24 10° W 03:44:18 27° SSW 03:47:12 10° SSE visible
15 May -2.0 22:05:46 10° S 22:07:40 14° SE 22:09:34 10° ESE visible
15 May -3.4 23:40:40 10° SW 23:43:51 41° SSE 23:47:04 10° E visible
16 May -3.8 01:17:07 10° W 01:20:27 59° S 01:23:47 10° ESE visible
16 May -3.1 02:53:53 10° W 02:56:59 34° SSW 03:00:05 10° SE visible
16 May -3.1 22:53:27 10° SW 22:56:31 33° SSE 22:59:36 10° E visible
17 May -3.8 00:29:43 10° WSW 00:33:03 59° S 00:36:23 10° E visible
17 May -3.4 02:06:25 10° W 02:09:38 42° SSW 02:12:51 10° SE visible
17 May -2.1 03:43:50 10° WSW 03:45:52 15° SW 03:47:53 10° S visible
17 May -2.7 22:06:22 10° SSW 22:09:12 26° SSE 22:12:04 10° E visible
17 May -3.7 23:42:20 10° WSW 23:45:39 55° S 23:48:58 10° E visible
18 May -3.6 01:18:59 10° W 01:22:15 50° SSW 01:22:56 42° SSE visible
18 May -3.6 22:55:00 10° WSW 22:58:15 49° SSE 23:01:32 10° E visible
19 May -3.7 00:31:33 10° W 00:34:52 56° S 00:36:31 26° ESE visible
19 May -1.8 02:08:26 10° W 02:09:26 16° WSW 02:09:26 16° WSW visible
19 May -3.3 22:07:41 10° SW 22:10:53 41° SSE 22:14:05 10° E visible
19 May -3.8 23:44:08 10° W 23:47:28 59° S 23:50:21 13° ESE visible
20 May -2.8 01:20:54 10° W 01:23:17 30° SW 01:23:17 30° SW visible
20 May -3.7 22:56:44 10° WSW 23:00:04 59° S 23:03:24 10° E visible
21 May -3.4 00:33:26 10° W 00:36:39 42° SSW 00:37:12 38° S visible
21 May -3.6 22:09:21 10° WSW 22:12:39 55° S 22:15:58 10° E visible
21 May -3.6 23:45:59 10° W 23:49:16 50° SSW 23:51:10 22° SE visible
22 May -1.7 01:23:04 10° W 01:24:06 15° WSW 01:24:06 15° WSW visible
22 May -3.6 22:58:33 10° W 23:01:53 56° S 23:05:10 10° ESE visible
